Weather History for Tarboro, NC

Change the Weather History Date:

Sunday, March 9, 2014

  Actual Average Record
Temperature  
Mean Temperature 54 °F -  
Max Temperature 67 °F 60 °F 85 °F (1974)
Min Temperature 41 °F 36 °F 20 °F (1960)
Degree Days  
Heating Degree Days 11    
Growing Degree Days 4 (Base 50)    
Moisture  
Dew Point 39 °F    
Average Humidity 61    
Maximum Humidity 92    
Minimum Humidity 29    
Precipitation  
Precipitation 0.00 in - - ()
Sea Level Pressure  
Sea Level Pressure 30.02 in    
Wind  
Wind Speed 5 mph (West)    
Max Wind Speed 14 mph    
Max Gust Speed 21 mph    
Visibility 10 miles    
Events      
Averages and records for this station are not official NWS values.
T = Trace of Precipitation, MM = Missing Value Source: NWS Daily Summary

Daily Weather History Graph

Daily Weather History Graph

Search for Another Location

Airport:

Trip Planner

Search our weather history database for the weather conditions in past years. The results will help you decide how hot, cold, wet, or windy it might be!

Date:

Astronomy

Mar. 09, 2014 Rise Set
Actual Time 7:29 AM EDT 7:12 PM EDT
Civil Twilight 7:03 AM EDT 7:38 PM EDT
Nautical Twilight 6:34 AM EDT 8:07 PM EDT
Astronomical Twilight 6:04 AM EDT 8:37 PM EDT
Moon 1:11 PM EDT (3/9) 3:45 AM EDT (3/9)
Length of Visible Light 12h 34m
Length of Day
11h 42m
First Quarter, 61% of the Moon is Illuminated
Mar 9
First Quarter
Mar 16
Full
Mar 23
Last Quarter
Mar 30
New
Apr 7
First Quarter

Hourly Weather History & Observations

Time (EDT) Temp. Windchill Dew Point Humidity Pressure Visibility Wind Dir Wind Speed Gust Speed Precip Events Conditions
12:15 AM 54.1 °F - 43.0 °F 66% 29.98 in 10.0 mi SW 5.8 mph - N/A   Clear
12:35 AM 53.4 °F - 42.8 °F 67% 29.98 in 10.0 mi SW 4.6 mph - N/A   Clear
12:55 AM 53.2 °F - 42.8 °F 68% 29.98 in 10.0 mi SW 5.8 mph - N/A   Clear
1:15 AM 53.2 °F - 42.8 °F 68% 29.98 in 10.0 mi SW 5.8 mph - N/A   Clear
1:35 AM 52.7 °F - 42.8 °F 69% 29.97 in 10.0 mi SW 4.6 mph - N/A   Clear
1:55 AM 52.5 °F - 42.8 °F 70% 29.97 in 10.0 mi SW 5.8 mph - N/A   Clear
3:15 AM 52.0 °F - 42.8 °F 71% 29.97 in 10.0 mi WSW 4.6 mph - N/A   Clear
3:35 AM 50.9 °F - 42.4 °F 73% 29.97 in 10.0 mi WSW 4.6 mph - N/A   Clear
3:55 AM 50.0 °F - 42.1 °F 74% 29.96 in 10.0 mi WSW 4.6 mph - N/A   Clear
4:15 AM 49.6 °F - 42.3 °F 76% 29.96 in 10.0 mi WSW 4.6 mph - N/A   Clear
4:35 AM 48.9 °F - 42.1 °F 77% 29.97 in 10.0 mi WSW 4.6 mph - N/A   Clear
4:55 AM 48.4 °F - 41.9 °F 78% 29.98 in 10.0 mi WSW 3.5 mph - N/A   Clear
5:15 AM 48.4 °F - 41.9 °F 78% 29.97 in 10.0 mi West 4.6 mph - N/A   Clear
5:35 AM 47.7 °F - 41.7 °F 80% 29.98 in 10.0 mi West 4.6 mph - N/A   Clear
5:55 AM 47.1 °F - 41.5 °F 81% 29.98 in 10.0 mi West 3.5 mph - N/A   Clear
6:15 AM 45.7 °F - 41.2 °F 84% 29.98 in 10.0 mi Calm Calm - N/A   Clear
6:35 AM 43.0 °F - 40.3 °F 90% 29.99 in 10.0 mi Calm Calm - N/A   Clear
6:55 AM 42.1 °F - 39.6 °F 91% 30.00 in 10.0 mi Calm Calm - N/A   Clear
7:15 AM 41.2 °F - 38.8 °F 91% 30.00 in 10.0 mi Calm Calm - N/A   Scattered Clouds
7:35 AM 42.4 °F 39.6 °F 40.1 °F 91% 30.01 in 10.0 mi West 4.6 mph - N/A   Mostly Cloudy
7:55 AM 45.5 °F 43.2 °F 41.4 °F 85% 30.02 in 10.0 mi West 4.6 mph - N/A   Overcast
8:15 AM 47.3 °F - 42.3 °F 83% 30.03 in 10.0 mi West 4.6 mph - N/A   Overcast
8:35 AM 48.0 °F - 42.6 °F 82% 30.03 in 10.0 mi West 3.5 mph - N/A   Overcast
8:55 AM 48.7 °F - 42.4 °F 79% 30.04 in 10.0 mi West 3.5 mph - N/A   Overcast
9:15 AM 49.6 °F - 42.3 °F 76% 30.05 in 10.0 mi WNW 4.6 mph - N/A   Mostly Cloudy
9:35 AM 51.1 °F - 42.1 °F 71% 30.06 in 10.0 mi WNW 4.6 mph - N/A   Scattered Clouds
9:55 AM 52.7 °F - 41.4 °F 65% 30.06 in 10.0 mi WNW 4.6 mph - N/A   Clear
10:15 AM 54.9 °F - 40.5 °F 58% 30.06 in 10.0 mi NW 8.1 mph - N/A   Clear
10:35 AM 57.2 °F - 40.1 °F 53% 30.06 in 10.0 mi WNW 8.1 mph - N/A   Clear
10:55 AM 60.8 °F - 40.1 °F 46% 30.06 in 10.0 mi NW 13.8 mph 18.4 mph N/A   Clear
11:15 AM 61.9 °F - 38.7 °F 42% 30.07 in 10.0 mi WNW 11.5 mph 20.7 mph N/A   Clear
11:35 AM 62.6 °F - 39.0 °F 42% 30.06 in 10.0 mi NW 11.5 mph 16.1 mph N/A   Clear
11:55 AM 62.2 °F - 38.3 °F 41% 30.06 in 10.0 mi NNW 10.4 mph 18.4 mph N/A   Clear
12:15 PM 62.4 °F - 38.5 °F 41% 30.06 in 10.0 mi North 11.5 mph 16.1 mph N/A   Clear
12:35 PM 62.4 °F - 38.7 °F 41% 30.06 in 10.0 mi NNW 8.1 mph - N/A   Clear
12:55 PM 63.3 °F - 37.8 °F 39% 30.06 in 10.0 mi WNW 6.9 mph - N/A   Clear
1:15 PM 64.6 °F - 37.0 °F 36% 30.05 in 10.0 mi West 9.2 mph - N/A   Clear
1:35 PM 65.3 °F - 36.7 °F 35% 30.05 in 10.0 mi WNW 9.2 mph 16.1 mph N/A   Clear
1:55 PM 65.7 °F - 36.5 °F 34% 30.04 in 10.0 mi West 8.1 mph - N/A   Clear
2:15 PM 66.4 °F - 37.2 °F 34% 30.03 in 10.0 mi WNW 9.2 mph - N/A   Clear
2:35 PM 66.9 °F - 37.2 °F 34% 30.03 in 10.0 mi WNW 8.1 mph - N/A   Clear
2:55 PM 67.1 °F - 37.6 °F 34% 30.02 in 10.0 mi WNW 8.1 mph - N/A   Clear
3:15 PM 66.9 °F - 35.1 °F 31% 30.02 in 10.0 mi WNW 8.1 mph - N/A   Clear
3:35 PM 66.7 °F - 34.3 °F 30% 30.01 in 10.0 mi NW 10.4 mph - N/A   Clear
3:55 PM 66.9 °F - 34.3 °F 30% 30.01 in 10.0 mi NW 9.2 mph - N/A   Clear
4:15 PM 67.1 °F - 35.1 °F 31% 30.01 in 10.0 mi North 4.6 mph - N/A   Clear
4:35 PM 67.5 °F - 35.4 °F 31% 30.01 in 10.0 mi West 8.1 mph - N/A   Clear
4:55 PM 67.5 °F - 35.4 °F 31% 30.00 in 10.0 mi West 9.2 mph - N/A   Clear
5:15 PM 67.3 °F - 34.7 °F 30% 30.01 in 10.0 mi West 9.2 mph - N/A   Clear
5:35 PM 66.4 °F - 33.4 °F 29% 30.01 in 10.0 mi WNW 10.4 mph 20.7 mph N/A   Clear
5:50 PM 65.8 °F - 32.5 °F 29% 30.01 in 10.0 mi West 10.4 mph 16.1 mph N/A   Clear
6:15 PM 64.9 °F - 32.0 °F 29% 30.01 in 10.0 mi West 8.1 mph - N/A   Clear
6:35 PM 64.0 °F - 32.4 °F 31% 30.01 in 10.0 mi WNW 8.1 mph - N/A   Clear
6:55 PM 62.6 °F - 32.4 °F 32% 30.02 in 10.0 mi West 6.9 mph - N/A   Clear
7:15 PM 60.6 °F - 32.4 °F 35% 30.02 in 10.0 mi West 5.8 mph - N/A   Clear
7:35 PM 58.8 °F - 33.1 °F 38% 30.03 in 10.0 mi West 3.5 mph - N/A   Clear
7:55 PM 55.4 °F - 35.4 °F 47% 30.03 in 10.0 mi Calm Calm - N/A   Clear
8:15 PM 51.4 °F - 39.0 °F 63% 30.03 in 10.0 mi Calm Calm - N/A   Clear
8:35 PM 49.3 °F - 38.7 °F 67% 30.04 in 10.0 mi Calm Calm - N/A   Clear
8:55 PM 47.3 °F - 39.2 °F 73% 30.04 in 10.0 mi Calm Calm - N/A   Clear
9:15 PM 46.0 °F - 41.4 °F 84% 30.05 in 10.0 mi Calm Calm - N/A   Clear
9:35 PM 44.6 °F - 39.4 °F 82% 30.05 in 10.0 mi Calm Calm - N/A   Clear
9:55 PM 43.7 °F - 40.1 °F 87% 30.05 in 10.0 mi Calm Calm - N/A   Clear
10:15 PM 42.8 °F 41.1 °F 40.5 °F 91% 30.04 in 10.0 mi ENE 3.5 mph - N/A   Clear
10:30 PM 42.6 °F - 40.5 °F 92% 30.04 in 10.0 mi Calm Calm - N/A   Clear
10:55 PM 44.2 °F 40.3 °F 38.8 °F 81% 30.05 in 10.0 mi ESE 6.9 mph - N/A   Clear
11:15 PM 46.6 °F - 39.6 °F 77% 30.06 in 10.0 mi ESE 4.6 mph - N/A   Clear
11:35 PM 46.6 °F - 39.6 °F 77% 30.05 in 10.0 mi ESE 4.6 mph - N/A   Clear
11:55 PM 45.7 °F 44.4 °F 39.4 °F 79% 30.05 in 10.0 mi SE 3.5 mph - N/A   Clear
12:15 AM 44.6 °F - 39.2 °F 81% 30.05 in 10.0 mi Calm Calm - N/A   Clear
12:35 AM 44.1 °F 42.5 °F 39.2 °F 83% 30.05 in 10.0 mi SE 3.5 mph - N/A   Clear
12:55 AM 43.7 °F 42.1 °F 39.0 °F 84% 30.04 in 10.0 mi SSE 3.5 mph - N/A   Clear